sat.trackr.live / text

‹ back to catalog

STARLINK-30447

NORAD 57874 · 2023-144L

PAYLOAD ACTIVE UNKNOWN

§ Identity

Operator
Country
US
Launch date
2023-09-16
Launch site
AFETR
Launch vehicle
Mass (kg)
RCS (m²)

Purposes: comms

External: N2YO · Heavens-Above · Gunter

§ Orbital elements

Epoch: 2026-09-20T08:22:55.483392Z

Period
94.27 min
Inclination
43.0014°
Eccentricity
0.0001064
Mean motion
15.27576517 rev/d
Perigee alt
482.3 km
Apogee alt
483.8 km
Semi-major
6,861.2 km
B*
3.0861e-5
RAAN
240.1225°
Arg perigee
269.1018°
Mean anomaly
90.9712°
Rev number
16,770

§ Raw data

STARLINK-304471 57874U 23144L   26263.34925328  .00000587  00000+0  30861-4 0  99912 57874  43.0014 240.1225 0001064 269.1018  90.9712 15.27576517167704

JSON: /api/v1/satellites/57874 · /tle

For live sub-satellite position, see the globe view (requires WebGL).

§ Visibility from observer

Set your observer location to see the next 7 days of passes ≥ 10°. The values pass through the URL so the page stays shareable.

No JS? Fill the form by hand. The geolocation button needs JavaScript.